[[{"header":{"parameterUnit":"m.s-1","parameterCategory":1,"la1":30.2991,"la2":30.254,"lo1":-89.0895,"lo2":-89.0444,"dy":0.0017,"dx":0.0017,"nx":28,"ny":28,"refTime":"2025-05-16T09:00:00:Z","depth":0,"parameterNumber":2,"parameterNumberName":"U-component_of_WINDS"},"data":[0,0,0,0,0,0,0,0,0,0,0,0,0,0,0,0,0,0,0,0,0,0,0,0,0,0,0,0,0,0,0,0,0,0,0,0,0,0,0,0,0,0,0,0,0,0,0,0,0,0,0,0,0,0,0,0,0,0,0.7848,0.7847,0,0.7769,0.7768,0.7767,0.766,0.7658,0.7657,0.7655,0.7579,0.7578,0.7578,0,0,0,0,0,0,0,0,0,0,0,0,0,0.7908,0.7907,0.7848,0.7847,0.7846,0.7769,0.7768,0.7767,0.7661,0.7658,0.7656,0.7654,0.7579,0.7579,0.7578,0,0,0,0,0,0,0,0,0,0,0,0,0,0.7861,0.7907,0.7848,0.7783,0.7777,0.7769,0.7768,0.7767,0.7661,0.7658,0.7656,0.7653,0.7579,0.7579,0.7578,0.7629,0,0,0.7576,0.7576,0,0,0,0,0,0,0,0,0.7864,0.7859,0.7794,0.7788,0.778,0.7722,0.7761,0.7721,0.7662,0.7705,0.7655,0.7652,0.7629,0.7624,0.7615,0.7626,0.7622,0.7576,0.7576,0.7576,0.7576,0,0,0,0,0,0,0,0.7867,0.7862,0.7817,0.7793,0.7785,0.7759,0.7749,0.7753,0.7683,0.7701,0.7693,0.7685,0.7625,0.7616,0.7613,0.7621,0.7576,0.7576,0.7576,0.7575,0.7668,0.767,0,0,0,0,0,0,0.788,0.7865,0.7819,0.7814,0.7816,0.776,0.7749,0.7743,0.7683,0.7671,0.7688,0.768,0.7618,0.7614,0.761,0.7664,0.7576,0.7575,0.7575,0.7665,0.7668,0.7671,0,0,0,0,0,0,0.7881,0.7876,0.7822,0.7837,0.7829,0.7762,0.7756,0.7743,0.7734,0.7672,0.766,0.7691,0.7616,0.761,0.7624,0.766,0.7575,0.7575,0.7662,0.7666,0.767,0.7775,0,0,0,0,0,0,0.7883,0.7878,0.7896,0.7839,0.7828,0.7838,0.7758,0.7744,0.7733,0.7723,0.7673,0.7662,0.7613,0.7626,0.7624,0.7658,0.7574,0.7658,0.7664,0.7669,0.7768,0.7783,0.7795,0,0,0,0,0,0.7886,0.793,0.7897,0.7893,0.7849,0.784,0.7834,0.7776,0.7737,0.7755,0.7715,0.7664,0.7657,0.7628,0.7625,0.766,0.7656,0.7662,0.7668,0.7763,0.778,0.7794,0,0,0,0,0,0,0.7995,0.7921,0.7884,0.7911,0.7883,0.7822,0.7843,0.7797,0.778,0.7772,0.7702,0.7691,0.7714,0.7688,0.7658,0.7705,0.7649,0.7655,0.7721,0.7737,0.775,0.7756,0.7574,0,0,0,0,0,0.8022,0.802,0.7956,0.7986,0.7973,0.7911,0.7905,0.7862,0.783,0.7818,0.7779,0.7751,0.7742,0.7738,0.7727,0.7764,0.7751,0.7786,0.78,0.7811,0.7817,0.7833,0.7848,0.7692,0.7692,0.7692,0,0,0.8078,0.8038,0.8041,0.8006,0.7979,0.7979,0.7901,0.7905,0.7904,0.7819,0.7829,0.78,0.7764,0.7789,0.7799,0.7769,0.7857,0.7819,0.7828,0.7828,0.7841,0.7856,0.7869,0.7696,0.7695,0.7695,0,0,0.818,0.8149,0.817,0.8144,0.8103,0.8061,0.8066,0.8012,0.7989,0.7998,0.7933,0.7932,0.7919,0.7895,0.7882,0.7973,0.7926,0.7972,0.8041,0.8058,0.807,0.8081,0.8113,0.8125,0.7978,0.7978,0.7978,0,0.8255,0.8251,0.8187,0.8193,0.818,0.8101,0.8122,0.81,0.8059,0.8051,0.8018,0.7998,0.7969,0.7987,0.8009,0.8001,0.8005,0.7977,0.8073,0.8083,0.8092,0.8122,0.8134,0.7984,0.7983,0.7983,0.7982,0,0.8345,0.8344,0.8365,0.8325,0.8314,0.8328,0.8266,0.8263,0.8221,0.8183,0.8193,0.8154,0.8133,0.8134,0.8095,0.8147,0.8129,0.8086,0.8027,0.8114,0.8141,0.8152,0.7992,0.799,0.7989,0.7987,0,0,0.8515,0.8437,0.8446,0.8426,0.8375,0.8373,0.8383,0.836,0.8359,0.8333,0.8339,0.8329,0.8288,0.8273,0.8229,0.8245,0.8318,0.8198,0.8197,0.8222,0.8373,0.8406,0.842,0.8286,0.8288,0.829,0.8375,0,0.8606,0.8618,0.8559,0.8587,0.8584,0.8508,0.8517,0.8487,0.8452,0.8445,0.8406,0.8399,0.8346,0.8336,0.8347,0.8307,0.8348,0.83,0.8292,0.8293,0.8303,0.8434,0.8469,0.8552,0.8386,0.8387,0.8389,0,0.8715,0.8692,0.8719,0.8665,0.8661,0.867,0.8644,0.8638,0.8603,0.8576,0.8558,0.8507,0.8514,0.8458,0.8466,0.8435,0.8428,0.8408,0.841,0.8407,0.8346,0.8434,0.8577,0.8589,0.8405,0.8403,0.8402,0,0.8834,0.8811,0.8823,0.8809,0.8746,0.8754,0.8729,0.869,0.868,0.8658,0.865,0.863,0.8619,0.8605,0.855,0.8515,0.8565,0.8505,0.8543,0.8544,0.8557,0.8557,0.87,0.8553,0.8553,0.8553,0.8553,0,0.8943,0.8962,0.8876,0.8884,0.8903,0.8836,0.8857,0.8824,0.879,0.8791,0.8725,0.8727,0.8655,0.8649,0.8607,0.8619,0.8615,0.8594,0.8582,0.8599,0.8602,0.8594,0.8587,0.8556,0.8556,0.8555,0.8554,0,0.908,0.9023,0.9031,0.8971,0.8956,0.8973,0.8921,0.8926,0.8886,0.8887,0.8884,0.8821,0.8811,0.8754,0.8732,0.8703,0.8731,0.8708,0.8743,0.8735,0.8776,0.8773,0.8919,0.8934,0.8779,0.8781,0.8782,0,0.9152,0.9164,0.9105,0.9099,0.9076,0.9069,0.9058,0.8992,0.8983,0.8943,0.8953,0.8937,0.892,0.8907,0.886,0.8842,0.8818,0.8871,0.8815,0.8832,0.8818,0.8818,0.8818,0.8883,0.8885,0.8886,0.8888,0,0.9286,0.9257,0.9243,0.9219,0.9206,0.9185,0.9159,0.9159,0.9086,0.908,0.9067,0.9054,0.903,0.9015,0.8988,0.8963,0.8914,0.8905,0.8913,0.8931,0.895,0.8939,0.8774,0.8902,0.8901,0.89,0.8899,0.8898,0.9392,0.9399,0.9358,0.9344,0.9317,0.9294,0.9295,0.9255,0.9243,0.9217,0.9179,0.9172,0.9135,0.9094,0.9072,0.9066,0.9038,0.9049,0.9052,0.9056,0.9064,0.8951,0.9061,0.9061,0.906,0.906,0.9059,0,0.9522,0.9491,0.9479,0.9444,0.9433,0.9386,0.9355,0.9349,0.9343,0.9312,0.9296,0.9282,0.9267,0.9218,0.9198,0.9202,0.9179,0.9199,0.9198,0.9193,0.9091,0.9086,0.9218,0.9218,0.9218,0.9218,0.9218,0.9218,0.9588,0.9598,0.9564,0.9559,0.9528,0.9519,0.9505,0.9484,0.9459,0.9445,0.9431,0.9399,0.9361,0.9337,0.9321,0.9307,0.9303,0.9331,0.9309,0.9215,0.92,0.9186,0.918,0.933,0.933,0.9411,0.9412,0.9413]},{"header":{"parameterUnit":"m.s-1","parameterCategory":1,"la1":30.2991,"la2":30.254,"lo1":-89.0895,"lo2":-89.0444,"dy":0.0017,"dx":0.0017,"nx":28,"ny":28,"refTime":"2025-05-16T09:00:00:Z","depth":0,"parameterNumber":3,"parameterNumberName":"V-component_of_WINDS"},"data":[0,0,0,0,0,0,0,0,0,0,0,0,0,0,0,0,0,0,0,0,0,0,0,0,0,0,0,0,0,0,0,0,0,0,0,0,0,0,0,0,0,0,0,0,0,0,0,0,0,0,0,0,0,0,0,0,0,0,5.8546,5.8547,0,5.865,5.8651,5.8652,5.8612,5.8609,5.8607,5.8604,5.8704,5.8708,5.8713,0,0,0,0,0,0,0,0,0,0,0,0,0,5.8305,5.831,5.8546,5.8547,5.8549,5.865,5.8651,5.8653,5.8612,5.8609,5.8606,5.8603,5.8702,5.8708,5.8714,0,0,0,0,0,0,0,0,0,0,0,0,0,5.8409,5.8311,5.8546,5.8541,5.8541,5.865,5.8651,5.8653,5.8613,5.8609,5.8605,5.8602,5.87,5.8707,5.8714,5.8831,0,0,5.8737,5.874,0,0,0,0,0,0,0,0,5.8403,5.8418,5.854,5.8541,5.8542,5.8614,5.8603,5.8713,5.8613,5.8585,5.8604,5.86,5.8676,5.8685,5.8712,5.8836,5.884,5.8737,5.8742,5.8745,5.8747,0,0,0,0,0,0,0,5.8396,5.8413,5.8587,5.8542,5.8543,5.8531,5.8542,5.8623,5.8649,5.8587,5.8585,5.8598,5.8676,5.8705,5.8714,5.8842,5.8737,5.8744,5.8748,5.8751,5.9067,5.9071,0,0,0,0,0,0,5.839,5.8408,5.8583,5.859,5.8463,5.8538,5.855,5.8595,5.8648,5.8653,5.8601,5.8596,5.8695,5.8706,5.8718,5.8859,5.8745,5.8752,5.8756,5.9063,5.9068,5.9072,0,0,0,0,0,0,5.8385,5.8406,5.8579,5.8498,5.8519,5.8546,5.8596,5.8599,5.8628,5.8659,5.8662,5.8627,5.8692,5.8707,5.8804,5.8862,5.8755,5.8762,5.9058,5.9064,5.907,5.9142,0,0,0,0,0,0,5.8378,5.8404,5.8451,5.85,5.8524,5.8666,5.86,5.8603,5.8642,5.8636,5.8684,5.8688,5.8691,5.8793,5.8811,5.887,5.8767,5.9053,5.9061,5.9068,5.9135,5.915,5.9163,0,0,0,0,0,5.8369,5.8465,5.8453,5.8475,5.8583,5.867,5.8683,5.8686,5.8647,5.8692,5.8712,5.8687,5.8853,5.8804,5.8823,5.8885,5.9049,5.9059,5.9067,5.9129,5.9147,5.9163,0,0,0,0,0,0,5.8419,5.8471,5.8459,5.8574,5.8618,5.8663,5.8721,5.8706,5.876,5.8752,5.8751,5.8762,5.8862,5.8883,5.8827,5.9001,5.8945,5.8958,5.8984,5.9002,5.9016,5.9009,5.8773,0,0,0,0,0,5.8444,5.8513,5.8553,5.8651,5.8674,5.8694,5.8731,5.873,5.8775,5.8793,5.8819,5.8862,5.8923,5.8964,5.9022,5.9138,5.9147,5.919,5.9204,5.9215,5.9227,5.929,5.9309,5.9102,5.9102,5.9101,0,0,5.8495,5.8532,5.8575,5.8662,5.8696,5.8765,5.871,5.8785,5.8835,5.8803,5.8897,5.8918,5.8965,5.9072,5.912,5.9093,5.9286,5.9227,5.9236,5.9241,5.9301,5.9321,5.9338,5.9108,5.9107,5.9106,0,0,5.8624,5.8659,5.8745,5.8781,5.8834,5.8847,5.8867,5.8915,5.8929,5.9024,5.9001,5.906,5.9166,5.9201,5.9232,5.9375,5.9354,5.9394,5.9468,5.9529,5.9545,5.956,5.9611,5.963,5.9405,5.9405,5.9406,0,5.868,5.8786,5.8789,5.8868,5.8906,5.8883,5.8969,5.9002,5.9071,5.9097,5.9065,5.9199,5.9229,5.9344,5.9379,5.9405,5.9428,5.9389,5.9543,5.9558,5.9571,5.962,5.964,5.941,5.9409,5.9409,5.9409,0,5.8852,5.8926,5.8988,5.9059,5.9104,5.9185,5.9199,5.9244,5.9239,5.9254,5.935,5.9386,5.9451,5.9478,5.9472,5.9593,5.9574,5.9543,5.9486,5.9596,5.9642,5.966,5.9417,5.9415,5.9414,5.9412,0,0,5.9015,5.9088,5.9111,5.9143,5.9201,5.9256,5.9336,5.9403,5.9441,5.9489,5.9555,5.9646,5.9618,5.9654,5.9652,5.9706,5.9817,5.9668,5.9669,5.9695,5.9952,5.9976,5.9998,5.9804,5.9807,5.981,5.9949,0,5.9149,5.9292,5.9298,5.9428,5.9495,5.9474,5.9543,5.9585,5.9602,5.966,5.9676,5.9741,5.9699,5.9721,5.9774,5.9793,5.9869,5.9783,5.9864,5.9867,5.9854,6.0022,6.0047,6.0176,5.9967,5.997,5.9972,0,5.9324,5.9382,5.9519,5.9568,5.9596,5.9659,5.9721,5.9777,5.9823,5.9831,5.9873,5.9863,5.9942,5.9882,5.9991,5.9933,5.9966,5.998,5.9985,5.9993,5.9926,6.0035,6.0217,6.0237,6.0,5.9998,5.9996,0,5.9431,5.9541,5.9638,5.9666,5.9725,5.977,5.9796,5.9839,5.9879,5.9932,5.9958,6.0018,6.0052,6.0098,6.0104,6.006,6.0213,6.0154,6.0221,6.0221,6.0255,6.0253,6.0446,6.0275,6.0275,6.0275,6.0274,0,5.958,5.9665,5.9687,5.9746,5.984,5.9845,5.9937,5.9959,5.9998,6.006,6.0044,6.0102,6.0107,6.0166,6.017,6.026,6.0274,6.0282,6.0283,6.0285,6.0284,6.0306,6.0298,6.028,6.0279,6.0278,6.0277,0,5.9714,5.9733,5.9837,5.9886,5.99,5.9967,6.0007,6.0063,6.0078,6.0157,6.0175,6.0198,6.0267,6.0278,6.0358,6.0361,6.0469,6.0459,6.0454,6.0453,6.052,6.0514,6.0735,6.0764,6.0574,6.0576,6.0578,0,5.9809,5.9874,5.9931,5.9973,6.0002,6.0069,6.0111,6.0118,6.0161,6.022,6.0268,6.0336,6.0391,6.0501,6.0524,6.0584,6.0577,6.065,6.0585,6.0586,6.0579,6.0575,6.0582,6.0662,6.0664,6.0666,6.0668,0,5.9975,5.9981,6.0043,6.011,6.016,6.0212,6.026,6.0294,6.0307,6.0356,6.0428,6.0471,6.0554,6.0621,6.0682,6.0706,6.0689,6.0688,6.0707,6.0709,6.0704,6.0709,6.0489,6.0683,6.0681,6.068,6.0679,6.0679,6.0093,6.015,6.02,6.027,6.0307,6.0353,6.0409,6.0432,6.0493,6.0563,6.0563,6.0641,6.0685,6.0766,6.0794,6.0854,6.083,6.0858,6.0865,6.0871,6.0879,6.0695,6.0865,6.0865,6.0864,6.0864,6.0864,0,6.0259,6.029,6.0354,6.0424,6.0479,6.0461,6.0513,6.056,6.063,6.0674,6.0729,6.0811,6.0877,6.0905,6.0969,6.1011,6.1005,6.1028,6.1025,6.1031,6.0896,6.0874,6.1032,6.1032,6.1032,6.1032,6.1032,6.1032,6.0351,6.0448,6.046,6.0575,6.0605,6.0685,6.0716,6.0758,6.0793,6.0887,6.0943,6.0961,6.0999,6.1065,6.1124,6.113,6.1154,6.1181,6.1184,6.1057,6.104,6.1024,6.1003,6.1186,6.1186,6.1314,6.1315,6.1316]}]]